Location: Quedlinburg
(51.7921°N, 11.1414°E)
Time: 01:37:51
(UTC+02:00)

METEOR M2 - Pass Details

Date: 18 March 2026
Orbit: 817 x 824 km, 98.5° (Epoch: 13 April)

Event Time Altitude Azimuth Distance (km) Brightness Sun altitude
Rises 04:35:59 0° 16° (NNE) 3,374 ? -17.0°
Reaches altitude 10° 04:38:22 10° 19° (NNE) 2,437 ? -16.7°
Maximum altitude 04:43:45 69° 103° (ESE) 886 ? -15.9°
Drops below altitude 10° 04:49:06 10° 186° (S) 2,418 ? -15.1°
Sets 04:51:27 0° 189° (S) 3,346 ? -14.8°
